www.pogodaiklimat.ru

Погода и климат >> Архив погоды >> Иран >> Kerman


ПОГОДА в Kerman

  • Прогноз погоды в Kerman
  • Монитор погоды в Kerman
  • Климат города

АРХИВ ПОГОДЫ в Kerman

Время (UTC), дата Ветер
(напр.,м/с)
 
Видим.   Явления Облачность Т
(С)
Тd
(С)
f
(%)
Тe
(С)
Тes
(С)
Комфортность P
(гПа)
Po
(гПа)
Тmin
(С)
Tmax
(С)
R
(мм)
R24
(мм)
S
(см)
00 14.11 штиль 0 10 км ясно +4.3 +1.3 81 +3 +3 1016.0 827.1
03 14.11 ЮВ 2 7000 м дымка 3/0
[Ci sp]
+2.8 +0.5 85 -0 -0 1019.1 827.3 +2.6
06 14.11 штиль 0 10 км 3/0
[Ci fib]
+11.4 +2.4 54 +11 +19 1018.9 828.8
09 14.11 штиль 0 10 км 1/0
[Ci fib]
+15.0 +1.2 39 +15 +26 опасность
простуды
1015.3 826.0
12 14.11 СЗ 2 10 км 8/0
[Cs]
+18.2 -3.9 22 +19 +20 1013.7 824.7
15 14.11 С 2 10 км 6/0
[Cs]
+12.8 -1.2 38 +12 +12 1017.4 825.8 +18.8
18 14.11 Ю 2 10 км 3/0
[Ci fib]
+8.1 -1.3 51 +7 +7 1016.8 826.5
21 14.11 В 2 10 км 3/0
[Ci fib]
+7.7 -0.6 56 +6 +6 1015.2 826.2
00 15.11 ЮВ 2 10 км 6/0
[Cs]
+6.6 -0.6 60 +5 +5 1015.4 826.5
03 15.11 ЮВ 2 10 км 8/1 1200 м
[Sc diur, vesp Cs]
+7.2 -0.3 59 +5 +5 1018.8 828.2 +5.3
06 15.11 Ю 2 10 км 9/4 1200 м
[Sc diur, vesp Ac As Ci sp]
+17.2 -0.1 31 +18 +20 1018.1 829.2
09 15.11 Ю 2 10 км 9/4 1200 м
[Cu hum Ac und Cs]
+20.2 -0.1 26 +21 +24 комфорт 1015.6 827.9
12 15.11 З 3 10 км 10/4 1200 м
[Cu hum Ac As Cs]
+19.4 -0.2 27 +20 +20 1016.2 827.8
15 15.11 С 3 10 км 9/3 1200 м
[Sc diur, vesp Ac As Cs]
+14.3 +3.8 49 +14 +14 1019.4 829.3 +21.1
18 15.11 ЮЗ 3 10 км 9/1 1200 м
[Sc diur, vesp Ac As Cs]
+12.5 +2.8 52 +11 +11 1017.7 830.2
21 15.11 В 3 10 км 4/0
[Ci sp]
+10.0 +2.6 60 +8 +8 1017.6 830.3
00 16.11 ЮВ 2 10 км ясно +8.3 +2.2 65 +7 +7 1017.8 829.8
03 16.11 штиль 0 10 км 5/1 1000 м
[Cu hum Cs]
+6.1 +1.2 71 +5 +5 1021.8 830.9 +6.0
06 16.11 штиль 0 10 км 9/1 1200 м
[Cu hum Ac und Cs]
+14.8 +3.1 45 +15 +19 1021.2 832.5
09 16.11 З 2 10 км 9/3 1200 м
[Cu hum Ac und Cs]
+20.9 -2.8 20 +21 +25 комфорт 1017.0 829.9
12 16.11 З 6 10 км 9/3 1200 м
[Cu hum Ac und Cs]
+20.8 -7.8 14 +20 +20 1016.9 829.2
15 16.11 штиль 0 10 км 9/3 1200 м
[Cu hum Ac und Cs]
+17.0 -2.6 26 +17 +17 1019.7 829.8 +22.0
18 16.11 СЗ 3 10 км 9/3 1200 м
[Cu hum Ac und Cs]
+15.2 +3.1 44 +15 +15 1019.1 831.5
21 16.11 С 2 10 км 8/5 1200 м
[Sc diur, vesp Ac und]
+12.6 +6.5 66 +12 +12 1017.4 831.3
00 17.11 ЮЗ 3 10 км 5/4 1200 м
[Sc diur, vesp Ac trans Ci fib]
+9.6 +6.1 79 +7 +7 1017.3 830.3
03 17.11 Ю 1 10 км 3/3 1200 м
[Sc diur, vesp Ci fib]
+8.2 +3.8 74 +8 +8 1017.3 830.3 +8.2
06 17.11 СЗ 3 10 км 4/1 1200 м
[Cu hum Ci sp]
+19.4 +1.9 31 +20 +24 1017.1 831.2
09 17.11 З 7 20 км 4/4 1200 м
[Cu hum]
+20.2 -4.2 19 +20 +21 1015.1 828.8
12 17.11 СЗ 4 20 км 4/4 1200 м
[Cu hum]
+21.2 -6.6 15 +20 +21 1014.1 827.4
15 17.11 С 2 20 км 3/3 1200 м
[Cu hum]
+14.3 -3.7 29 +14 +14 1018.0 828.2 +21.3
18 17.11 штиль 0 20 км 6/6 1350 м
[Sc diur, vesp]
+11.1 -2.7 38 +11 +11 1016.1 829.1
21 17.11 штиль 0 20 км 3/3 1350 м
[Sc diur, vesp]
+9.8 -1.9 44 +10 +10 1015.5 828.5
00 18.11 Ю 2 20 км ясно +6.1 -1.4 59 +4 +4 1016.6 828.5
03 18.11 ЮВ 2 20 км ясно +3.9 -0.7 72 +1 +1 1021.3 829.7 +3.9
06 18.11 штиль 0 15 км 1/1 1000 м
[Cu hum]
+14.3 +1.3 41 +14 +21 1019.5 830.4
09 18.11 С 2 15 км 1/1 1000 м
[Cu hum]
+17.9 -1.3 27 +18 +26 1015.4 827.7
12 18.11 СЗ 3 15 км 1/1 1000 м
[Cu hum]
+19.5 -5.3 18 +20 +21 1014.4 826.2
15 18.11 С 2 30 км ясно +13.0 -1.7 36 +13 +13 1019.1 827.5 +19.8
18 18.11 Ю 2 30 км ясно +9.8 -2.2 43 +9 +9 1017.3 828.2
21 18.11 СВ 2 30 км ясно +6.0 -2.8 53 +4 +4 1016.3 827.8
00 19.11 В 2 30 км ясно +3.4 -2.8 64 +1 +1 1017.3 827.8
03 19.11 штиль 0 30 км ясно +1.2 -3.5 71 0 0 1021.7 828.8 +1.0
06 19.11 С 2 20 км 1/0
[Ci fib]
+16.0 -0.3 33 +16 +22 1018.2 829.4
09 19.11 СВ 2 20 км 3/0
[Ci fib]
+19.0 -8.7 14 +19 +27 1016.2 827.4
12 19.11 Ю 3 20 км 4/0
[Ci fib]
+22.8 -15.8 6 +20 +21 1014.1 826.0
15 19.11 штиль 0 20 км 6/0
[Ci fib]
+14.4 -13.5 13 +15 +15 1019.3 827.1 +23.9
18 19.11 штиль 0 20 км 6/0
[Ci fib]
+10.3 -5.9 31 +10 +10 1016.5 828.0
21 19.11 штиль 0 20 км 8/0
[Cs]
+5.7 -5.4 45 +5 +5 1016.4 827.6
00 20.11 В 2 20 км 8/0
[Cs]
+5.3 -4.5 49 +3 +3 1014.1 827.0
03 20.11 штиль 0 20 км 6/0
[Ci sp]
+3.6 -5.4 52 +3 +3 1019.5 828.0 +3.3
06 20.11 штиль 0 15 км 8/0
[Ac lent Cs]
+16.0 -4.6 24 +16 +22 1016.8 828.4
09 20.11 З 4 15 км 9/1 1200 м
[Cu hum Ac As]
+17.6 -9.1 15 +17 +19 1014.9 825.8
12 20.11 СЗ 8 10 км 9/5 1050 м
[Cb calv As op]
+11.6 +3.0 56 +8 +8 1016.7 825.7
18 20.11 штиль 0 10 км {дождь} ясно +5.7 +4.2 90 +5 +5 1015.2 826.0 0.3
21 20.11 ЮВ 2 10 км ясно +4.0 +2.7 91 +1 +1 825.2

 

Местоположение метеостанции Kerman (Иран): широта 30.25 долгота 56.97 высота над уровнем моря 1754 м.

В архиве по умолчанию представлена погода в Kerman за последнюю неделю. Архивные данные за месяц целиком и за предыдущие месяцы, начиная с января 2011 года, Вы можете получить, выбрав интересующий диапазон дат из раскрывающегося списка и нажав кнопку "Ввод!".


*Определитесь, кто Вы:
робот инопланетянин человек

Внимание! Время в таблицах - всемирное. Для получения местного времени необходимо прибавить поправку, которая в Kerman равна 3.5 ч.

Смотрите также архив погоды в соседних городах и на ближайших метеорологических станциях:

Погода в Baft (Иран) (120 км)
Погода в Sirjan (Иран) (149 км)
Погода в Bam (Иран) (188 км)
Погода в Kahnuj (Иран) (263 км)
Погода в Yazd (Иран) (315 км)
Погода в Nehbandan (Иран) (325 км)
Погода в Bandarabbass (Иран) (342 км)
Погода в Fasa (Иран) (349 км)
Погода в Birjand (Иран) (360 км)
Погода в Tabas (Иран) (373 км)

Пояснения к столбцам:

Ветер - указаны скорость ветра в м/с - средняя за 10 мин, порывы в срок и между сроками (в фигурных скобках) и направление, откуда дует ветер: С - северный, СВ - северо-восточный, В - восточный, ЮВ - юго-восточный, Ю - южный, ЮЗ - юго-западный, З - западный, СЗ - северо-западный.
Видимость - горизонтальная дальность видимости в метрах или километрах. При видимости от 1 до 10 км при отсутствии осадков обычно наблюдается дымка, при ухудшении видимости до 1 км и менее - туман. В сухую погоду видимость может ухудшаться дымом, пылью или мглою.
Явления - указаны атмосферные явления, наблюдавшиеся в срок или в последний час перед сроком; фигурными скобками обозначены явления, наблюдавшиеся между сроками (за 1-3 часа до срока); квадратными скобками обозначены град или гололедные отложения с указанием их диаметра в мм.
Облачность - указаны через наклонную черту общая и нижняя облачность в баллах и высота нижней границы облаков в метрах; квадратными скобками обозначены формы облаков: Ci - перистые, Cs - перисто-слоистые, Cc - перисто-кучевые, Ac - высококучевые, As - высокослоистые, Sc - слоисто-кучевые, Ns - слоисто-дождевые, Cu - кучевые, Cb - кучево-дождевые. Подробнее классификацию облаков см. в Атласе облаков (PDF).
T - Температура воздуха - температура, измеренная на высоте 2 м над землей.
Td - Температура точки росы - температура, при понижении до которой содержащийся в воздухе водяной пар достигнет насыщения.
f - Относительная влажность воздуха - влажноcть воздуха, измеренная на высоте 2 м над землей.
Te - Эффективная температура - температура, которую ощущает одетый по сезону человек в тени. Характеристика душности погоды. При расчете учитывается влияние влажности воздуха и скорости ветра на теплоощущения человека.
Tes - Эффективная температура на солнце - температура, которую ощущает человек, с поправкой на солнечный нагрев. Характеристика знойности погоды. Зависит от высоты солнца над горизонтом, облачности и скорости ветра. Ночью, в пасмурную погоду, а также при ветре 12 м/с и более поправка равна нулю.
P - Атмосферное давление - приведенное к уровню моря атмосферное давление.
Po - Атмосферное давление - измеренное на уровне метеостанции атмосферное давление.
Tmin - Минимальная температура - минимум температуры воздуха на высоте 2 м над землей.
Tmax - Максимальная температура - максимум температуры воздуха на высоте 2 м над землей.
R - Количество осадков - Количество выпавших осадков за период времени, мм. При наведении курсора мыши на число - период времени, за который выпало указанное количество осадков.
R24 - Количество осадков - Количество выпавших осадков за 24 часа, мм.
S - Снежный покров - Высота снежного покрова, см. При наведении курсора мыши на число - состояние снежного покрова и степень покрытия местности в баллах.